Tracking 29034 objects as of 24-Jun-2024
HD Live streaming from Space Station
objects crossing your sky now

ATLAS 5 CENTAUR DEB

Track ATLAS 5 CENTAUR DEB now!


NORAD ID: 44846
Int'l Code: 2014-055CE
Perigee: 5,382.3 km
Apogee: 34,084.0 km
Inclination: 21.4 °
Period: 699.6 minutes
Semi major axis: 26104 km
RCS: Unknown
Launch date: September 17, 2014
Source: United States (US)
Launch site: AIR FORCE EASTERN TEST RANGE (AFETR)

Note: This is SATELLITE DEBRIS
Your satellite tracking list
Your tracking list is empty




NASA's NSSDC Master Catalog

Two Line Element Set (TLE):
1 44846U 14055CE  24173.25295376 -.00000247  00000-0  00000+0 0  9990
2 44846  21.3900 108.6395 5497528 237.6394  57.3401  2.05843931 36238
Source of the keplerian elements: AFSPC